User: anonymous   Login
Location: Hurecourt
(47.9030°N, 6.0653°E)
Time: 12:37:05
(UTC+00:00)
Language:

Meteor 1-29 - Orbit

View from above orbital plane
View from above orbital plane
View from above satellite
View from above satellite

Ground track
Ground track

The orbit data is extracted from the following two-line orbital elements,

1 11251U 79005A   20271.90258791 +.00001714 +00000-0 +46637-4 0  9997
2 11251 097.6544 199.0934 0016919 114.6603 245.6406 15.38933579824294
Epoch (UTC): 27 September 2020 21:39:43
Eccentricity: 0.0016919
inclination: 97.6544°
perigee height: 438 km
apogee height: 461 km
right ascension of ascending node: 199.0934°
argument of perigee: 114.6603°
revolutions per day: 15.38933579
mean anomaly at epoch: 245.6406°
orbit number at epoch: 82429

The dashed part of the orbit path shows where the satellite is in the earth's shadow,  

DLR